Flag for Russia Weather past 2 weeks in Kazan, Russia

Now
55 °F

Sprinkles. Passing clouds.


Feels Like: 53 °F
Forecast: 53 / 60 °F
Wind: 8 mph from Southeast

Location: Kazan'

Current Time: Sep 3, 2014 at 6:27:13 AM

Latest Report: Sep 3, 2014 at 5:30 AM


Visibility: N/A

Pressure: 30.21 "Hg

Humidity: 88%

Dew point: 52 °F

Location of KazanLocation

Historic Weather in Kazan — Graph

°F

Kazan temperature yesterday

Maximum temperature yesterday: 64 °F (at 1:30 PM)
Minimum temperature yesterday: 46 °F (at 1:30 AM)
Average temperature yesterday: 56 °F

Past Weeks' High & Low Weather Summary

 TemperatureHumidityPressure
High82 °F (Aug 21, 4:00 PM)100% (Aug 20, 4:00 AM)30.30 "Hg (Aug 20, 4:00 AM)
Low46 °F (Aug 24, 5:00 AM)30% (Aug 22, 1:30 PM)29.30 "Hg (Aug 29, 3:30 PM)
Average62 °F76%29.94 "Hg
* Reported Aug 19 5:00 AM — Sep 3 5:00 AM, Kazan, Weather by CustomWeather, © 2014

Note: Actual official high and low records may vary slightly from our data, if they occured in-between our weather recording intervals... More about our weather records

Advertising

Kazan weather history for previous 24 hours

 ConditionsComfort  
Time TempWeatherWind HumidityBarometerVisibility
5:00 AM
Sep 3
57 °FSprinkles. Passing clouds.8 mph82%30.24 "HgN/A
4:30 AM57 °FSprinkles. Passing clouds.8 mph82%30.24 "HgN/A
4:00 AM57 °FSprinkles. Passing clouds.8 mph82%30.24 "HgN/A
3:30 AM57 °FSprinkles. Passing clouds.8 mph82%30.24 "HgN/A
3:00 AM57 °FSprinkles. Partly cloudy.8 mph82%30.24 "HgN/A
2:30 AM57 °FSprinkles. Partly cloudy.8 mph82%30.24 "HgN/A
2:00 AM57 °FClear.8 mph82%30.24 "Hg10 mi
1:30 AM57 °FClear.8 mph77%30.24 "Hg10 mi
1:00 AM57 °FClear.8 mph82%30.24 "Hg10 mi
12:30 AM59 °FClear.8 mph77%30.24 "Hg10 mi
12:00 AM57 °FClear.8 mph82%30.24 "Hg10 mi
11:30 PM
Sep 2
59 °FClear.8 mph77%30.24 "Hg10 mi
11:00 PM59 °FClear.8 mph72%30.24 "Hg10 mi
10:30 PM59 °FClear.8 mph72%30.24 "Hg10 mi
10:00 PM59 °FLight rain. Passing clouds.8 mph72%30.24 "HgN/A
9:30 PM59 °FClear.8 mph72%30.24 "Hg10 mi
9:00 PM59 °FClear.6 mph72%30.24 "Hg10 mi
8:30 PM59 °FSunny.6 mph68%30.24 "Hg10 mi
8:00 PM59 °FSunny.6 mph68%30.24 "Hg10 mi
7:30 PM59 °FSunny.6 mph72%30.24 "Hg10 mi
7:00 PM59 °FSunny.3 mph72%30.27 "Hg10 mi
6:30 PM61 °FSunny.3 mph68%30.27 "Hg10 mi
6:00 PM61 °FBroken clouds.3 mph68%30.27 "HgN/A
5:30 PM61 °FBroken clouds.3 mph63%30.27 "HgN/A
5:00 PM63 °FBroken clouds.6 mph59%30.27 "HgN/A
4:30 PM63 °FBroken clouds.6 mph59%30.27 "HgN/A
4:00 PM63 °FBroken clouds.8 mph56%30.27 "HgN/A
3:30 PM63 °FSunny.8 mph59%30.27 "Hg10 mi
3:00 PM63 °FSunny.10 mph56%30.30 "Hg10 mi
2:30 PM63 °FBroken clouds.10 mph56%30.30 "HgN/A
2:00 PM64 °FSunny.8 mph52%30.30 "Hg10 mi
1:30 PM64 °FSunny.8 mph52%30.30 "Hg10 mi
1:00 PM63 °FSunny.10 mph56%30.30 "Hg10 mi
12:30 PM63 °FSunny.10 mph52%30.30 "Hg10 mi
12:00 PM63 °FSunny.10 mph52%30.30 "Hg10 mi
11:30 AM63 °FSunny.10 mph52%30.30 "Hg10 mi
11:00 AM61 °FSunny.8 mph55%30.30 "Hg10 mi
10:30 AM61 °FSunny.8 mph59%30.30 "Hg10 mi
10:00 AM59 °FSunny.10 mph68%30.30 "Hg10 mi
9:30 AM59 °FSunny.8 mph72%30.30 "Hg10 mi
9:00 AM57 °FSunny.8 mph77%30.30 "Hg10 mi
8:30 AM55 °FSunny.6 mph77%30.30 "Hg10 mi
8:00 AM54 °FSunny.6 mph77%30.30 "Hg10 mi
7:30 AM52 °FSunny.3 mph77%30.30 "Hg10 mi
6:30 AM46 °FClear.6 mph93%30.30 "Hg10 mi
6:00 AM46 °FClear.3 mph87%30.30 "Hg10 mi
Weather by CustomWeather, © 2014

See weather overviewHow to use our weather pages